Location: Leiter
(44.7178°N, 106.2687°W)
Time: 21:00:35
(UTC+00:00)

M-CUBED/EXP-1 PRIME - Visible Passes

Search period start: 26 June 2022 00:00
Search period end: 06 July 2022 00:00
Orbit: 423 x 634 km, 101.7° (Epoch: 26 June)

Date Brightness Start Highest point End Pass type
(mag) Time Alt. Az. Time Alt. Az. Time Alt. Az.
26 Jun ? 07:27:42 27° E 07:28:10 29° ENE 07:31:02 10° N visible
26 Jun ? 09:02:57 14° W 09:02:57 14° W 09:04:10 10° WNW visible
27 Jun ? 07:16:29 19° E 07:17:15 21° ENE 07:19:46 10° NNE visible
27 Jun ? 08:51:45 21° W 08:51:45 21° W 08:53:42 10° NW visible
28 Jun ? 07:05:16 13° E 07:06:21 15° ENE 07:08:19 10° NNE visible
28 Jun ? 08:40:31 30° W 08:40:31 30° W 08:42:59 10° NW visible
29 Jun ? 06:54:31 10° ENE 06:55:28 11° NE 06:56:26 10° NE visible
29 Jun ? 08:29:16 47° W 08:29:16 47° W 08:32:08 10° NNW visible
30 Jun ? 08:18:01 75° WNW 08:18:01 75° WNW 08:21:10 10° NNW visible
01 Jul ? 08:06:44 68° E 08:06:48 68° ENE 08:10:08 10° NNW visible
02 Jul ? 07:55:27 43° E 07:55:47 44° ENE 07:59:00 10° N visible
03 Jul ? 07:44:09 28° E 07:44:45 30° ENE 07:47:47 10° N visible
03 Jul ? 09:19:24 15° W 09:19:24 15° W 09:20:50 10° WNW visible
04 Jul ? 07:32:49 19° E 07:33:45 22° ENE 07:36:27 10° N visible
04 Jul ? 09:08:04 21° W 09:08:04 21° W 09:10:17 10° NW visible
05 Jul ? 07:21:30 14° E 07:22:46 16° ENE 07:24:58 10° NNE visible
05 Jul ? 08:56:44 31° W 08:56:44 31° W 08:59:30 10° NW visible
